Theta_e
315 313 317 320 320 319 324 328 328 331 330 325 323 322 321 321 323 324 324 324 323 324 324 324 327 329 332 332 334 336 334 338 339 340 341 336 334 336 336 336 336 336 333 324 317 319 329 335 334 335 336 337 336 335 334 329 324 324 329 332 332 331 331 332 333 333 332 331 330 330 331 332 332 332 331 332 331 331 331 331 331 332 333 334 333 333 331 330 330 332 333 332 330 331 331 330 330
315 314 320 321 321 317 323 330 329 335 333 321 321 323 319 318 323 326 327 327 324 328 330 332 333 332 335 332 330 334 335 334 332 335 337 334 336 337 337 337 336 336 330 321 319 322 329 333 333 334 334 335 334 334 331 327 322 325 331 332 332 331 332 334 334 334 333 331 330 330 331 331 331 331 332 332 331 331 331 331 330 331 333 333 333 333 333 332 332 332 333 331 330 330 330 330 330
316 316 320 321 322 320 329 329 324 332 328 319 323 323 317 320 326 329 329 325 325 329 332 331 333 333 333 330 326 331 336 332 331 335 337 336 336 337 338 337 336 335 326 320 321 323 326 329 332 332 332 333 333 333 331 328 324 326 332 332 331 332 333 335 334 334 333 331 330 330 330 330 330 330 330 330 330 329 329 330 329 330 333 333 332 332 332 333 333 332 331 330 330 329 329 329 329
318 318 319 321 322 327 344 336 329 331 322 320 322 321 322 325 327 328 326 323 328 331 331 329 332 330 328 331 329 331 336 333 334 337 337 336 336 338 338 336 337 332 323 320 322 322 324 328 331 331 330 332 333 333 332 331 327 326 331 331 331 333 333 333 333 333 332 331 329 329 329 328 328 328 329 330 330 329 329 329 329 330 332 332 331 331 331 333 333 331 329 328 329 328 328 328 327
320 319 317 322 324 327 338 330 330 329 320 323 320 320 327 328 327 326 321 323 328 328 327 332 336 330 328 334 332 333 336 333 335 336 337 337 337 338 337 337 335 329 322 320 321 321 324 329 330 329 328 330 333 333 333 332 328 326 330 332 332 333 331 329 331 332 331 330 329 330 330 330 329 328 329 330 330 330 330 329 330 330 331 331 330 331 331 332 332 331 328 327 327 326 326 326 326
320 319 317 319 319 319 325 320 323 325 325 327 320 322 326 325 324 324 322 323 325 321 321 329 335 334 334 334 331 333 334 334 336 336 337 337 337 337 337 336 334 328 321 320 320 319 323 327 328 330 330 329 329 331 332 333 330 327 329 332 332 331 328 329 332 332 332 331 330 331 331 331 330 328 328 329 330 330 330 330 330 330 331 331 331 331 331 332 332 331 330 329 328 326 327 326 326
318 318 321 321 319 321 329 324 327 330 324 321 319 321 323 323 321 324 326 325 324 319 320 327 331 335 337 333 332 334 333 334 335 336 337 336 337 337 337 336 333 326 320 320 318 319 322 324 329 333 334 330 326 330 333 333 332 328 329 331 331 331 328 329 331 331 332 331 330 331 330 330 330 329 328 329 331 330 330 329 329 330 331 332 332 331 331 331 331 330 330 329 328 327 327 326 326
317 320 325 328 328 329 334 328 330 331 318 314 317 319 322 322 320 325 327 326 323 321 327 332 330 332 332 331 337 335 331 334 335 336 336 336 337 336 336 336 332 324 319 319 317 320 322 323 330 334 334 331 327 330 333 333 332 330 330 329 330 330 330 330 330 330 331 330 329 330 330 330 330 330 330 330 330 330 329 329 329 330 330 331 331 330 330 331 331 330 330 328 327 327 327 326 326
317 321 324 328 328 327 331 326 323 324 321 320 317 319 323 319 320 326 325 322 321 326 333 332 329 323 328 337 342 334 331 335 335 336 336 337 337 336 336 335 332 323 319 319 318 320 321 323 329 333 333 331 328 330 333 333 332 331 329 327 329 330 331 331 329 330 330 329 328 329 329 329 329 329 329 329 329 329 329 329 329 329 330 331 331 330 329 330 330 329 329 328 326 326 326 326 325
318 321 324 327 327 321 322 326 324 321 322 322 317 320 323 318 320 324 324 320 322 332 332 328 328 322 332 344 341 332 332 335 335 336 336 337 336 336 336 334 331 324 319 317 317 320 321 323 328 332 331 331 330 330 333 332 332 332 330 327 327 329 330 329 328 329 330 329 327 328 329 329 329 329 329 329 329 329 329 329 328 328 329 329 330 330 329 329 329 329 328 326 326 325 325 325 324
324 328 330 329 326 320 318 326 332 329 324 320 319 319 319 319 320 322 323 321 323 329 327 325 332 335 338 339 336 332 331 335 336 336 336 337 336 336 336 334 330 325 319 315 316 319 322 325 329 330 329 330 330 330 332 332 332 332 331 328 326 328 329 329 328 329 329 328 328 328 328 328 329 328 329 328 328 328 328 328 328 328 328 329 329 330 328 328 328 328 328 326 325 325 325 325 324
324 333 338 330 324 322 321 325 331 334 330 324 323 321 318 319 321 322 322 323 323 325 325 325 329 337 343 341 336 331 331 336 336 336 338 337 337 336 335 333 330 325 319 316 316 318 321 326 329 329 329 330 331 329 331 332 333 332 332 330 327 327 329 329 328 329 328 329 329 329 328 328 328 328 328 328 328 328 327 327 328 327 327 328 328 329 328 327 327 327 327 326 325 325 325 324 323
330 334 335 325 322 323 321 324 327 331 332 325 321 318 316 319 322 323 324 326 324 325 324 322 327 333 341 340 333 329 332 336 335 337 337 336 337 335 335 333 330 325 320 316 316 317 321 326 329 330 330 332 331 330 330 331 333 333 331 330 327 326 328 328 328 329 329 329 330 329 328 327 327 327 327 328 327 326 327 327 327 327 326 327 328 328 327 327 327 327 326 325 325 325 325 324 324
332 334 333 324 320 326 323 321 323 324 325 322 318 315 316 319 323 324 323 326 325 326 320 318 327 333 333 332 331 336 334 334 336 336 336 337 337 335 334 333 329 324 320 317 316 317 320 324 328 330 331 331 331 330 330 330 332 333 332 330 324 324 328 328 328 328 328 329 329 328 326 324 324 324 325 326 326 326 327 328 327 327 326 326 327 327 326 326 326 326 326 325 325 325 324 324 324
326 331 334 328 320 324 323 319 322 323 322 321 316 314 318 317 319 324 323 325 324 319 317 320 325 323 326 328 331 337 333 334 336 335 335 336 335 335 334 333 329 325 322 319 316 317 318 321 324 328 330 330 331 331 330 330 331 332 331 325 319 321 326 327 327 327 327 328 327 327 325 323 322 320 321 323 324 325 326 326 326 326 326 326 326 326 325 326 326 326 326 325 325 324 324 324 324
324 331 334 330 322 320 320 319 322 322 322 321 314 313 320 316 314 320 318 319 322 316 321 328 321 321 327 327 326 327 330 336 335 334 335 334 335 335 334 332 328 325 324 320 317 317 317 319 321 324 328 330 330 330 331 331 331 330 326 317 315 319 323 326 326 327 328 327 326 326 325 323 322 320 320 320 321 321 321 323 323 324 324 324 324 325 325 325 326 326 325 325 325 325 324 324 324
321 330 333 326 324 321 320 321 320 320 323 321 314 314 321 319 313 313 311 315 324 322 327 328 320 324 330 327 325 325 330 335 334 335 334 334 335 334 334 332 328 326 325 323 319 317 317 318 320 320 324 328 329 329 330 331 330 329 323 316 315 316 320 324 325 327 328 326 326 325 324 323 322 321 320 321 320 318 318 320 320 322 322 321 321 323 324 325 325 325 325 325 325 325 324 324 324
324 331 330 324 326 326 324 323 320 318 319 318 315 316 321 322 316 313 312 320 327 324 328 330 326 326 325 325 327 328 332 335 335 335 335 335 335 334 334 332 329 328 327 326 321 318 318 317 318 319 322 326 328 328 329 330 328 327 323 318 316 314 317 323 323 325 327 325 325 324 323 323 322 322 321 321 320 319 318 318 319 319 319 319 318 319 321 322 323 323 323 323 323 323 323 323 324
329 329 325 328 332 326 322 322 320 317 315 317 316 315 318 320 318 315 314 321 325 324 327 330 331 329 327 326 328 331 333 336 335 335 335 335 335 334 334 333 331 329 328 329 325 320 319 317 316 317 320 323 325 326 326 327 325 324 322 319 317 314 316 321 323 323 325 325 324 323 323 323 323 323 322 322 321 320 319 318 318 318 318 318 318 317 318 319 319 319 320 320 319 319 319 320 321
324 322 323 331 331 322 319 320 320 317 314 317 316 313 314 316 316 314 317 324 325 324 324 327 331 333 335 330 327 331 333 335 335 335 336 335 336 335 334 333 332 331 330 330 328 323 320 318 317 316 318 320 323 323 322 322 321 321 320 319 318 315 314 318 322 322 323 323 323 323 323 323 323 323 322 322 321 320 319 319 318 318 318 317 318 318 318 319 319 318 318 318 319 318 318 318 318
317 319 325 325 321 318 318 320 320 318 314 314 317 314 314 314 314 314 318 323 324 323 321 323 327 332 338 330 327 332 333 335 335 335 336 335 336 334 334 333 333 333 331 330 330 326 322 320 318 317 317 318 320 321 320 319 319 319 318 318 318 316 314 314 318 321 322 322 322 323 323 323 323 322 322 322 321 320 320 319 319 318 318 318 318 317 317 318 318 319 319 319 319 319 319 319 319
315 316 321 320 317 315 316 318 318 317 313 314 317 315 314 313 313 316 319 319 320 320 320 323 322 327 337 331 327 331 332 335 335 335 336 335 336 334 333 333 334 334 332 331 331 329 326 322 319 318 317 317 318 318 318 318 318 318 317 318 317 317 316 312 312 316 319 321 321 322 322 322 322 322 322 322 321 320 320 320 319 319 318 318 318 317 317 317 317 317 318 318 317 318 318 318 318
317 315 315 317 316 313 314 315 314 314 314 316 317 314 313 314 314 316 318 318 317 315 316 316 315 322 330 329 328 332 332 334 334 335 335 335 336 335 333 332 334 335 333 332 331 331 328 325 322 319 318 318 317 318 318 318 318 318 317 318 318 318 317 315 311 310 313 316 318 320 320 321 321 321 321 321 321 320 319 319 319 319 319 318 318 318 317 316 317 317 317 319 319 320 320 320 320
318 316 315 313 312 313 313 312 313 313 314 315 313 311 313 317 316 313 315 317 314 315 312 310 312 320 326 328 329 331 332 334 334 335 335 335 335 335 333 333 334 335 334 333 332 332 331 328 325 322 320 319 318 318 318 318 318 318 318 318 318 318 318 317 314 311 310 311 313 316 318 319 320 320 320 320 320 319 319 320 319 318 320 320 319 319 319 318 320 320 321 322 323 323 323 323 322
318 319 320 315 312 314 313 312 313 313 313 312 310 312 315 316 313 311 315 316 313 319 320 318 319 324 328 329 330 330 331 333 334 334 335 335 335 335 334 333 334 334 335 334 333 333 333 331 329 326 323 321 320 319 318 318 318 318 318 318 318 318 319 318 317 315 312 310 310 311 313 315 317 318 318 318 317 318 321 322 322 320 320 322 322 321 321 322 323 323 324 324 324 324 324 324 323
323 321 322 317 315 314 312 313 314 313 313 311 312 316 315 312 311 314 315 314 317 328 334 331 328 331 330 329 329 329 331 332 333 334 334 335 335 335 334 334 334 334 334 334 333 333 333 333 331 329 327 324 322 321 320 319 319 319 318 319 319 319 319 319 319 318 317 315 312 311 311 312 314 315 315 316 317 320 323 324 324 323 320 321 323 323 324 324 324 325 325 325 325 325 324 324 324
322 319 317 314 316 315 312 313 313 313 313 312 314 317 315 309 311 317 314 313 321 334 341 333 333 338 331 329 329 328 330 330 332 332 332 334 334 335 335 334 334 334 333 333 333 332 332 332 332 331 330 328 326 324 323 322 321 320 319 319 319 319 319 319 319 319 319 319 317 315 314 313 313 314 315 318 321 323 325 325 326 325 323 322 323 324 325 325 325 325 325 325 325 325 325 325 325
314 316 315 315 317 316 314 314 313 312 312 313 314 314 313 309 312 318 312 313 319 333 343 332 332 336 328 328 329 327 329 329 331 331 332 332 332 334 334 335 335 334 334 333 333 332 332 332 332 333 332 331 329 328 327 325 324 323 322 321 320 320 320 320 320 320 320 320 320 320 318 317 316 317 318 321 324 325 326 326 326 325 324 325 325 325 326 326 325 325 325 325 324 324 324 324 324
311 314 318 320 319 318 317 315 313 312 312 314 313 313 314 311 314 315 312 316 321 333 347 336 329 330 327 328 327 327 328 328 329 330 331 331 331 333 333 334 334 334 334 333 332 332 332 331 332 334 333 332 332 330 329 328 328 326 325 324 323 324 323 323 322 322 322 321 322 322 322 321 320 320 321 323 325 326 326 327 327 326 325 326 326 326 326 326 325 325 324 324 323 323 323 323 323
311 313 318 321 321 322 320 315 313 313 313 314 312 314 320 317 316 312 313 322 325 330 345 339 331 327 326 328 327 327 326 326 329 329 330 331 331 332 332 333 333 333 333 333 333 331 331 331 332 333 333 333 333 332 332 331 330 329 329 327 326 327 327 327 325 325 325 325 325 324 325 325 324 322 322 324 325 326 326 327 327 327 327 326 326 326 326 326 325 324 324 323 323 323 324 324 323
316 314 317 319 324 329 323 315 315 316 313 312 311 313 319 318 317 312 314 323 323 323 336 339 336 329 325 328 327 327 325 325 328 328 330 330 330 331 331 332 332 333 333 332 332 331 331 331 331 332 333 333 333 333 333 332 332 331 331 330 329 329 329 329 329 330 329 330 330 328 328 328 327 325 324 324 324 325 326 327 327 327 327 326 325 325 325 326 325 325 325 324 324 323 323 324 323
322 321 323 319 323 328 322 315 316 319 313 310 312 314 316 315 316 311 311 320 321 319 326 333 337 333 327 327 326 327 326 324 326 327 329 329 330 330 330 332 332 332 332 331 331 331 331 330 330 331 332 334 333 333 333 333 333 332 332 332 331 331 330 331 331 332 333 333 333 331 330 330 330 328 326 325 325 326 327 327 328 327 327 326 326 325 325 326 326 326 325 324 324 324 324 324 324
321 324 329 323 320 322 320 316 313 315 314 310 312 315 316 316 314 309 309 320 323 319 320 323 327 328 325 325 325 326 326 325 325 325 327 329 330 330 330 331 331 332 332 331 331 330 330 329 330 331 332 333 333 333 333 333 332 332 333 332 332 333 332 332 332 333 334 334 334 333 332 332 331 330 329 328 327 327 328 328 328 327 327 326 326 326 325 326 326 326 326 325 325 325 325 325 324
321 320 324 321 318 318 319 319 313 312 312 311 312 312 314 315 314 311 311 320 326 324 321 319 319 322 323 323 323 324 325 326 325 324 326 328 328 330 330 330 330 331 331 331 331 331 331 330 330 331 332 333 333 333 333 333 333 333 334 334 334 334 334 334 333 333 334 334 334 334 333 332 332 332 331 330 329 329 329 329 328 328 328 327 327 326 325 325 325 325 325 325 325 325 325 325 324
324 319 320 319 317 315 317 319 314 311 312 312 312 311 312 313 313 312 313 319 324 324 322 320 317 318 320 322 322 322 322 325 324 324 325 326 327 328 329 330 330 330 331 331 331 332 332 332 332 332 332 333 333 333 333 333 332 333 334 334 335 335 335 335 334 334 333 333 334 334 334 333 333 333 333 332 331 330 330 330 329 328 328 328 327 327 326 325 325 324 324 325 325 325 325 325 325
323 319 321 323 320 317 315 316 312 310 313 314 314 313 312 312 312 311 313 316 319 319 318 317 315 314 314 317 319 319 320 322 321 321 323 325 326 327 327 328 329 329 330 330 330 331 332 332 332 332 333 333 333 333 333 332 332 332 333 333 334 334 335 335 335 335 334 333 333 334 334 334 334 333 333 333 332 331 331 330 330 329 329 328 327 327 327 326 325 324 325 325 324 325 325 324 324
319 318 322 322 322 320 315 313 311 310 313 316 315 313 312 312 312 311 311 312 314 315 315 315 315 314 312 312 313 314 316 317 316 316 319 321 324 325 327 327 328 328 329 329 330 330 331 331 331 332 332 333 333 333 333 333 332 332 333 333 332 333 333 334 335 335 334 334 333 334 334 335 335 334 334 334 333 332 331 330 331 330 329 329 328 327 327 327 325 325 326 325 325 324 323 323 324
317 319 321 320 321 321 317 313 312 310 312 315 313 311 312 312 312 311 310 310 311 312 313 313 314 314 312 310 311 310 310 311 310 311 312 315 319 322 324 326 327 327 328 329 329 329 330 330 331 331 332 333 332 333 333 333 333 333 333 332 332 332 332 332 333 334 334 334 333 333 334 335 336 335 334 334 333 332 331 331 332 331 329 329 328 327 326 325 325 326 326 326 325 324 323 324 324
320 320 320 320 318 319 317 312 312 311 311 316 315 311 311 311 311 311 309 309 310 310 310 311 312 313 312 312 312 310 308 309 309 309 307 310 314 317 321 323 325 327 327 328 328 329 329 329 330 330 331 332 332 332 332 333 333 333 333 333 332 332 331 331 332 332 332 332 332 331 332 333 336 336 334 334 334 333 332 332 332 331 329 329 329 328 327 325 326 326 326 326 325 325 324 325 325
320 319 320 320 316 318 319 313 312 311 310 313 315 312 311 310 310 311 311 309 309 311 310 310 310 311 311 311 312 310 309 310 312 310 306 305 309 313 316 319 321 324 325 327 327 327 328 328 329 329 330 330 331 331 332 332 332 333 333 332 332 332 331 331 330 331 330 330 330 330 331 332 334 336 335 334 333 333 333 333 332 330 328 328 327 328 328 328 327 326 326 326 325 325 325 326 326
317 319 322 320 315 316 318 315 313 314 312 311 314 314 315 317 315 314 313 310 308 309 309 309 310 309 309 309 310 310 310 310 311 312 309 305 305 309 312 315 317 320 322 324 325 326 327 327 328 328 329 329 329 330 331 332 332 331 331 331 331 331 331 331 331 330 330 329 330 330 331 332 333 335 335 334 333 333 333 333 333 331 329 328 328 328 328 327 328 328 326 326 326 326 327 326 325
317 320 321 318 317 316 315 317 319 319 317 313 313 317 323 324 319 316 318 314 311 310 308 309 310 308 308 309 309 309 309 309 309 310 309 305 304 306 309 312 315 317 318 319 321 323 324 325 327 327 327 328 328 329 330 330 331 330 330 330 330 330 330 330 330 330 330 330 330 330 330 331 332 333 334 334 334 334 332 332 333 331 328 327 328 328 327 326 326 326 327 327 327 328 327 325 323
320 321 319 317 318 318 317 320 323 322 318 312 310 315 321 320 315 315 318 316 313 311 309 310 310 309 309 309 309 309 308 308 308 308 307 305 304 304 306 309 312 314 315 316 318 320 322 324 325 326 326 327 327 328 328 329 330 330 330 330 329 329 329 330 330 329 329 329 329 330 330 330 331 332 333 333 334 333 332 333 332 330 329 326 325 326 325 325 325 326 328 327 327 327 325 323 322
324 321 318 318 317 318 319 320 321 320 317 315 314 314 315 315 314 313 314 314 314 312 311 311 311 311 311 309 308 309 308 309 309 309 308 305 303 303 305 307 309 311 313 315 316 318 320 322 323 325 326 326 327 327 327 328 328 329 329 329 329 329 329 329 329 329 329 329 329 330 329 330 330 330 331 331 332 332 332 334 331 329 330 328 325 326 325 325 326 327 327 327 327 325 323 323 322
326 319 315 318 317 319 321 319 319 317 315 317 317 313 314 318 319 316 313 313 314 313 313 314 313 314 316 314 311 308 308 308 309 310 309 305 303 303 305 306 307 308 310 312 314 315 317 319 322 324 325 326 326 327 327 327 328 328 328 328 328 328 329 329 330 330 329 329 329 329 329 330 329 329 329 330 330 330 330 333 331 328 329 329 326 326 327 327 327 325 325 326 325 322 322 322 322
319 315 315 318 319 321 319 318 317 315 316 319 318 316 316 319 320 317 313 313 314 314 314 314 314 314 315 315 312 308 307 308 309 308 305 302 303 304 304 305 306 306 307 309 311 314 316 319 321 323 324 325 325 326 327 327 328 328 328 328 328 328 329 329 329 329 329 330 329 330 330 330 330 329 330 330 330 330 330 332 332 327 328 330 327 324 325 327 326 324 322 323 323 322 321 321 321
313 315 316 317 321 322 320 321 319 316 319 320 318 318 315 317 320 317 313 314 315 314 314 314 314 314 314 314 312 310 310 312 311 310 304 299 300 302 302 303 304 305 305 306 308 311 315 318 320 322 323 324 325 326 326 327 327 328 328 328 328 328 329 329 329 329 329 329 329 329 330 330 330 330 330 330 330 330 330 331 331 328 328 329 325 323 325 326 325 322 320 321 322 322 321 320 320
314 320 318 316 319 319 320 322 319 319 321 318 316 315 313 316 320 315 312 313 313 312 314 316 316 317 316 314 314 314 315 315 315 316 312 304 302 302 301 301 303 304 304 304 305 308 312 317 319 321 323 324 325 325 326 327 327 328 328 328 328 328 328 329 329 329 329 329 329 329 330 330 330 330 330 329 328 329 329 330 330 329 328 328 326 325 326 324 323 322 321 321 321 321 321 320 319
315 319 317 317 318 316 319 320 317 320 320 314 312 312 311 314 316 313 313 313 313 312 311 314 315 314 314 311 312 314 314 314 314 316 315 312 308 303 300 301 302 302 303 304 305 306 310 315 319 320 322 323 324 325 326 327 327 327 328 328 328 328 329 329 329 329 329 329 329 329 330 330 330 330 329 329 328 329 330 330 329 328 328 328 326 325 323 322 322 322 321 321 320 319 319 318 318
314 314 315 321 320 317 318 318 316 320 319 312 310 311 313 317 316 314 314 312 313 313 310 311 311 310 310 309 309 311 311 310 310 310 311 313 308 302 301 303 303 303 303 304 305 307 309 313 317 320 321 322 324 325 325 326 326 327 327 327 328 328 328 329 329 329 329 329 329 329 330 330 330 330 330 329 328 328 329 329 328 327 327 326 325 323 322 322 321 321 320 320 319 318 317 316 316
312 315 317 322 323 321 322 320 319 322 319 310 308 312 320 324 319 314 313 312 313 314 313 313 312 310 309 308 309 310 308 307 307 308 311 310 303 301 304 305 305 306 305 305 305 307 309 312 315 318 320 321 323 324 325 325 326 326 327 327 327 328 328 328 329 329 329 329 329 329 330 330 330 330 330 329 328 328 328 328 327 327 327 325 323 323 322 321 321 319 318 318 318 317 315 314 313
312 315 317 318 320 323 322 319 319 322 320 313 310 315 321 321 317 313 311 312 313 314 314 314 315 314 311 313 316 313 309 308 309 312 318 314 302 301 305 306 307 308 307 307 306 307 309 310 313 316 318 320 321 323 324 325 325 326 326 327 327 327 328 328 328 328 328 329 329 329 330 330 330 330 330 329 327 327 327 327 327 326 326 324 322 322 320 318 318 318 317 317 316 315 313 311 311
312 313 315 314 316 322 321 314 312 314 317 317 313 315 317 315 315 314 312 312 312 312 312 312 314 315 316 320 322 316 311 311 312 316 322 316 303 302 306 308 309 309 308 309 308 308 309 309 312 314 316 319 320 322 323 324 325 325 325 326 326 326 327 327 328 328 328 329 329 329 330 330 330 329 329 329 327 326 326 326 326 325 324 323 321 320 318 316 316 316 315 315 313 311 310 309 309
312 314 315 312 312 319 322 317 313 313 317 319 314 313 315 315 318 319 315 313 314 313 313 311 312 316 318 321 320 317 314 313 316 317 316 310 301 302 308 309 309 310 310 310 309 309 309 309 310 312 313 316 318 320 322 322 324 324 325 325 325 325 326 326 327 327 328 328 328 329 329 329 329 329 329 328 326 326 326 325 325 323 322 321 320 318 316 314 313 313 312 311 310 309 308 308 307
313 317 315 313 317 319 318 318 318 316 317 320 319 314 312 312 316 318 315 314 316 315 313 312 311 313 317 319 320 319 317 317 320 320 319 312 302 303 309 310 311 311 311 311 311 311 311 310 310 310 311 312 314 316 319 321 322 323 323 324 324 325 325 325 326 327 327 327 328 328 329 329 329 329 328 327 326 325 325 324 322 321 320 320 318 316 314 312 311 311 311 309 308 307 307 305 302
310 314 311 312 318 318 316 316 317 318 317 319 322 319 317 315 314 314 313 312 314 312 313 313 312 312 315 317 320 321 320 321 321 320 323 317 304 304 310 311 311 312 312 312 312 312 312 312 311 311 311 310 310 311 313 316 319 321 322 322 322 323 324 325 325 326 326 327 327 328 328 329 329 328 327 326 326 325 324 322 320 320 320 318 316 314 311 311 310 310 308 304 303 302 301 298 296
310 312 311 310 312 314 316 315 314 319 320 320 321 321 322 321 314 312 314 313 313 314 314 315 314 314 318 319 320 321 319 320 319 319 322 315 302 304 310 311 312 313 312 313 313 313 313 313 313 312 312 311 311 310 310 310 313 316 319 320 321 322 323 324 324 325 326 326 327 327 328 328 328 328 327 325 325 324 323 322 319 319 318 317 315 311 309 308 307 305 303 301 299 297 295 293 293
311 312 312 311 312 313 315 314 312 314 318 321 320 316 320 322 314 311 314 315 315 315 313 313 314 316 321 322 321 320 318 319 318 319 322 312 301 303 308 309 311 312 313 314 313 314 314 313 314 314 313 312 312 311 311 310 310 312 315 317 319 320 321 323 324 324 325 326 326 327 327 327 327 326 325 325 324 323 321 320 319 318 317 316 312 309 307 305 303 302 302 301 298 295 292 292 292
Wind_Speed
4 5 4 3 6 3 1 4 1 2 3 2 1 1 2 1 0 2 1 2 2 1 2 1 3 4 3 2 3 3 1 2 4 2 1 0 8 18 12 10 17 17 15 14 13 15 17 17 15 13 11 10 10 9 9 9 9 11 13 14 14 13 13 13 13 14 15 15 14 14 15 15 15 15 16 16 16 16 16 16 16 16 17 17 17 17 17 18 18 17 17 17 18 19 18 19 19
4 4 4 3 6 5 1 2 2 2 4 2 1 1 1 1 0 3 5 4 3 2 2 2 4 3 3 3 3 3 2 1 2 2 2 6 15 16 8 13 18 16 15 14 14 16 16 16 16 14 11 9 9 9 9 9 10 13 14 13 13 12 12 12 13 15 16 15 14 14 14 14 14 14 15 15 15 15 16 16 16 17 17 16 16 17 17 17 17 17 16 17 18 18 19 19 19
3 3 4 3 4 5 1 2 2 0 3 1 2 2 1 2 3 5 6 4 3 3 2 2 3 2 2 2 1 1 1 1 3 2 5 12 15 11 10 15 17 15 14 14 15 15 15 16 15 14 12 10 8 9 10 9 11 14 14 12 12 11 12 12 12 14 15 15 14 13 13 14 14 14 15 15 15 15 16 16 16 17 16 16 16 17 16 16 17 16 15 17 18 18 18 19 18
4 4 4 1 2 4 3 3 1 2 2 1 1 2 2 4 5 4 5 4 4 4 2 1 1 1 1 0 0 1 1 0 4 3 7 13 12 13 15 16 16 15 14 14 15 13 14 16 15 13 13 11 9 11 10 9 11 13 13 11 11 10 12 12 11 12 13 14 14 13 13 13 14 14 15 15 15 15 16 16 16 16 16 16 16 16 16 15 17 16 15 17 17 18 19 18 18
4 7 3 2 2 2 2 2 2 2 1 3 1 2 4 5 5 4 3 4 5 2 2 2 1 0 1 1 0 1 1 2 5 4 10 14 12 15 17 17 17 15 14 14 13 13 15 17 15 12 12 12 11 12 11 10 9 11 13 12 10 10 10 10 11 11 12 14 13 13 12 13 14 14 14 15 15 15 16 16 16 16 16 15 15 16 16 15 16 16 15 16 16 17 17 17 17
2 7 9 7 4 1 2 1 0 0 3 4 2 3 4 5 5 5 4 2 3 0 1 1 1 1 1 0 1 2 3 3 5 7 13 16 15 17 17 17 17 15 14 14 13 13 16 17 15 12 12 12 12 13 13 11 9 12 14 12 10 9 9 9 11 11 12 14 12 11 12 13 14 14 14 14 14 14 15 15 15 15 15 15 16 16 16 15 15 15 15 14 14 15 16 16 16
1 1 5 7 3 2 3 1 2 2 2 3 2 3 3 4 5 6 6 2 2 1 1 2 1 4 1 2 1 2 4 3 5 10 15 18 19 19 18 17 17 15 14 13 12 14 17 17 15 13 12 12 12 13 14 13 10 11 12 11 10 10 10 10 10 10 12 13 12 11 12 13 13 13 14 13 13 13 14 14 15 15 14 14 15 15 15 15 14 14 14 13 13 14 14 15 15
4 1 1 3 2 3 3 1 2 2 1 1 3 3 3 5 6 7 7 2 1 1 1 2 2 3 1 1 1 1 3 5 6 13 17 19 22 20 19 17 16 16 14 13 13 15 17 18 17 14 12 12 12 12 14 14 12 11 11 12 12 11 10 11 11 9 11 13 12 11 12 12 12 12 13 13 12 13 13 13 14 14 14 13 13 14 14 14 14 13 13 12 12 13 14 14 15
5 3 0 2 2 2 2 1 2 2 3 3 3 4 3 4 5 7 7 2 1 2 1 3 2 1 1 2 1 2 1 5 8 17 20 20 22 21 20 18 17 17 15 13 13 16 17 18 18 15 12 12 12 12 13 14 13 11 10 13 14 12 10 10 9 8 9 11 11 11 11 12 12 12 12 12 13 13 12 12 12 13 13 13 12 13 13 13 12 12 11 11 11 12 13 13 13
5 3 1 2 2 1 3 2 1 2 4 3 4 4 3 4 5 5 6 2 1 3 2 2 2 1 2 1 2 1 1 5 13 19 20 22 23 21 20 19 18 16 15 14 14 17 17 19 18 15 14 13 12 12 14 14 13 13 10 12 14 12 10 8 7 7 8 10 11 11 10 11 12 12 12 12 13 12 12 12 12 12 13 13 12 11 12 12 11 11 10 10 11 12 12 12 12
3 3 2 3 2 1 2 2 2 3 4 4 4 4 4 5 5 4 3 1 1 3 3 2 1 3 3 1 2 1 1 10 17 19 20 22 22 21 20 20 19 16 15 15 15 17 17 19 18 16 15 14 13 13 14 14 13 13 12 11 12 12 11 9 9 8 8 9 10 10 10 11 11 12 12 12 12 12 12 12 12 12 12 12 11 10 10 10 10 10 9 10 11 11 11 11 11
1 2 3 3 2 2 2 2 3 4 5 3 1 2 3 6 6 5 4 2 2 2 3 3 2 4 3 2 2 2 3 13 17 17 20 21 21 22 21 21 19 16 15 15 15 16 17 19 18 16 15 14 14 14 14 14 13 13 13 11 11 13 11 10 10 9 9 9 10 10 10 11 11 11 12 12 11 11 12 11 11 11 11 12 11 10 9 9 9 9 8 9 9 9 9 9 10
2 1 3 3 2 2 2 1 3 4 5 2 2 1 4 6 5 6 6 3 3 4 4 5 4 3 2 2 3 2 5 15 16 16 20 20 20 20 21 22 19 17 15 15 16 16 17 19 18 16 15 14 13 14 14 13 13 12 13 10 10 14 13 12 12 10 9 10 11 11 10 10 10 11 11 12 11 12 12 11 11 11 11 11 11 10 8 8 8 8 7 7 7 7 7 7 8
2 2 3 2 1 2 3 1 2 1 3 3 1 1 3 3 4 5 7 4 5 5 2 4 6 2 2 2 3 2 7 17 17 17 20 19 18 19 20 21 20 18 16 16 16 16 17 19 19 17 15 14 13 13 13 13 13 12 11 8 9 14 15 13 14 12 10 10 11 11 8 8 9 10 11 11 12 13 13 12 11 11 10 11 10 9 8 7 7 7 6 5 5 5 6 6 6
2 2 3 3 1 1 2 0 1 2 2 2 1 1 2 1 3 4 5 5 5 4 1 3 4 1 3 3 2 3 9 19 19 19 21 19 18 18 19 21 21 19 17 16 16 16 17 18 19 18 16 15 14 13 13 13 13 12 9 7 8 14 15 14 14 13 11 11 11 10 6 7 9 10 10 10 10 11 11 12 11 11 10 10 9 8 8 7 7 6 6 4 3 4 4 4 5
3 3 4 3 2 1 3 2 2 2 2 3 1 1 2 2 3 3 4 3 1 1 1 3 2 0 3 5 2 3 10 20 20 20 22 20 18 18 17 19 21 19 18 17 17 16 16 17 18 19 18 16 15 13 14 13 12 11 8 6 8 12 14 14 15 13 12 12 11 10 8 8 9 9 9 9 9 9 9 9 10 10 9 9 8 8 7 7 6 6 5 4 2 1 2 3 4
2 3 4 1 2 2 4 4 3 2 3 3 2 2 4 2 1 1 2 2 3 1 1 2 1 0 3 3 2 2 13 22 21 22 22 20 19 18 17 17 19 18 18 19 18 17 17 17 17 19 20 18 17 15 14 14 12 11 8 7 7 10 12 14 15 13 11 12 11 11 9 8 9 8 8 8 8 8 8 8 8 8 8 8 7 7 7 6 6 4 4 3 2 1 1 2 3
3 2 2 1 2 3 5 6 6 3 0 1 1 3 5 2 2 1 0 3 3 1 2 2 2 3 5 5 3 5 19 23 22 24 23 21 19 18 17 18 19 19 19 20 20 19 18 18 17 18 20 19 18 16 15 14 13 12 10 8 8 9 12 13 14 14 12 12 11 11 10 9 8 7 7 7 7 7 8 7 7 7 7 7 6 6 5 5 5 4 3 2 2 2 2 2 3
3 3 2 3 4 4 4 5 5 2 1 1 2 1 4 4 4 3 2 2 1 2 3 2 3 4 4 3 4 14 22 24 23 24 24 22 21 19 18 19 20 20 20 20 21 22 20 20 19 19 20 20 18 17 16 15 14 13 11 10 9 9 11 12 13 13 13 12 12 11 10 9 8 7 6 6 6 6 6 6 6 6 6 5 5 5 5 4 4 3 2 1 0 1 1 2 3
1 3 2 4 4 3 2 3 5 2 0 1 3 1 3 4 4 3 3 2 2 6 5 2 4 7 4 3 11 18 21 23 23 23 23 23 22 21 20 20 22 22 21 20 22 23 22 21 20 20 20 20 19 18 16 15 15 13 12 11 10 10 11 12 13 13 13 13 13 12 11 9 8 7 6 6 5 5 5 5 5 5 4 4 4 4 4 4 4 3 3 2 3 3 3 3 3
1 3 3 3 3 1 1 4 4 2 1 0 1 1 2 3 3 2 5 4 4 8 7 8 10 9 7 6 13 19 20 21 22 24 24 23 23 22 20 21 22 21 21 20 21 23 24 23 21 21 20 20 20 19 17 17 16 14 13 12 11 11 11 12 13 13 13 13 13 12 12 10 9 8 7 6 6 5 5 4 4 3 3 2 1 2 3 3 3 3 3 3 3 4 4 4 4
2 1 2 3 3 2 1 3 3 1 2 2 1 1 2 1 2 3 7 6 6 6 6 9 9 8 9 10 15 18 18 20 22 24 24 24 25 22 21 21 21 20 20 20 20 23 25 24 23 22 21 21 20 19 19 17 16 16 14 13 12 12 12 12 13 14 14 14 13 13 12 11 10 10 8 8 7 6 5 4 3 2 2 1 1 2 3 3 2 2 2 2 2 3 3 3 4
2 0 1 1 2 1 1 2 2 3 4 3 2 2 1 2 3 2 7 9 5 3 5 7 7 10 14 14 17 16 16 19 23 26 27 27 27 24 23 23 23 21 21 21 20 22 25 25 24 24 23 22 21 20 20 18 17 17 16 15 14 13 13 13 13 14 14 14 14 13 13 12 12 11 10 10 8 7 6 5 4 3 2 2 2 3 3 3 2 2 1 1 2 2 3 3 3
3 1 0 2 3 2 2 1 2 3 4 4 2 1 2 3 3 1 6 10 4 2 4 4 5 12 16 15 17 17 19 22 25 28 27 28 29 25 23 23 24 23 23 24 21 20 24 27 25 25 24 23 23 22 21 20 19 18 17 16 16 15 14 14 13 13 13 14 14 14 14 13 13 12 12 11 10 8 6 5 4 3 2 2 2 3 3 3 2 2 1 1 2 2 3 4 4
1 3 2 3 3 4 3 1 2 3 4 2 1 2 4 5 3 0 7 9 5 2 2 4 7 11 12 13 16 16 18 22 23 24 24 24 26 24 22 23 24 25 25 26 23 20 22 26 26 26 25 25 24 23 22 21 20 19 19 18 17 16 16 15 14 14 14 14 14 14 14 15 14 14 13 11 10 9 7 5 3 3 3 3 2 3 3 2 2 1 0 2 3 4 4 5 5
4 5 3 2 2 4 2 2 0 2 3 1 3 4 5 3 1 3 8 6 3 2 5 4 7 8 8 10 14 15 15 20 22 23 24 23 23 24 25 25 26 27 27 26 26 23 21 23 25 27 26 26 25 24 24 23 22 22 20 19 19 18 17 16 16 15 14 14 14 14 14 15 15 14 13 12 11 9 7 5 3 2 3 3 2 2 3 2 2 1 1 3 4 5 6 6 6
4 5 3 4 3 2 1 2 1 1 3 4 5 4 4 2 0 4 5 2 1 4 4 2 6 7 9 8 10 14 15 19 23 23 22 20 21 24 26 27 27 28 28 27 27 27 24 23 23 25 27 26 26 26 25 25 24 23 22 21 20 19 19 18 17 16 16 15 15 14 14 14 14 14 13 12 11 10 8 6 5 4 3 3 3 3 3 2 2 1 2 4 5 6 7 7 8
3 5 2 4 4 3 2 2 2 2 1 5 5 2 2 2 0 5 3 3 2 6 3 3 5 6 7 7 7 10 13 17 20 19 20 23 26 28 28 29 29 28 29 29 28 28 27 27 24 24 26 26 27 28 27 26 25 24 23 23 22 21 20 19 19 18 17 17 16 15 15 15 15 14 14 13 11 10 9 7 6 5 4 3 3 3 3 3 2 3 4 5 7 8 8 9 11
3 4 2 4 5 4 5 3 1 2 1 5 3 2 3 2 6 7 2 1 3 6 4 4 5 5 4 6 5 7 11 13 15 19 25 28 30 29 29 31 30 29 30 30 30 29 29 30 27 24 25 26 28 29 28 28 27 25 25 24 23 22 21 21 20 19 18 18 17 16 16 15 15 15 14 13 12 10 9 8 7 5 4 4 4 4 4 4 5 6 7 8 8 8 9 11 12
3 3 1 2 4 4 5 3 4 1 1 4 2 3 4 6 10 7 1 2 5 4 5 5 5 5 4 4 5 6 9 12 17 24 28 27 27 28 30 30 31 31 30 29 30 31 30 31 30 27 26 27 28 31 30 29 28 27 26 25 24 23 22 22 21 20 19 19 18 17 17 16 16 16 15 14 13 11 10 9 8 5 4 5 6 6 7 7 8 9 9 9 9 9 10 11 12
3 2 0 1 1 4 5 1 5 4 2 4 3 4 5 8 10 6 2 3 5 6 6 5 5 5 5 4 5 6 9 15 21 23 24 24 26 28 29 30 31 31 31 30 31 32 31 31 32 30 29 28 28 32 32 31 30 28 28 27 26 25 24 23 22 21 21 20 19 19 18 18 17 16 16 15 14 12 11 10 8 6 6 7 8 8 9 10 11 11 11 10 10 11 11 11 13
2 2 2 2 3 4 5 1 5 5 2 4 4 3 5 8 8 4 1 2 4 6 6 5 6 6 6 5 6 7 8 14 19 20 22 24 27 28 30 30 31 32 33 33 32 32 31 32 33 32 31 30 29 31 33 32 31 30 29 29 28 26 25 25 24 23 22 21 20 20 20 19 18 17 16 16 15 14 12 10 9 8 8 9 9 9 10 11 11 12 12 12 14 14 12 12 15
1 3 3 2 3 2 3 1 1 2 1 3 5 4 3 5 5 4 2 3 4 5 7 6 5 6 5 5 6 6 6 8 13 19 24 27 30 31 31 31 31 32 34 34 33 32 32 32 34 34 32 31 29 30 32 32 31 31 30 30 29 27 26 26 25 24 23 22 22 21 21 20 19 18 17 17 16 15 13 12 11 11 11 11 11 10 11 11 12 12 12 13 15 15 14 14 16
3 3 2 1 3 3 1 2 3 2 1 3 5 5 5 7 7 4 2 3 5 5 7 6 5 5 5 5 5 6 6 6 10 19 28 31 32 32 31 31 31 31 32 33 34 34 33 33 34 35 34 33 31 30 32 32 31 32 31 31 30 28 27 27 26 25 25 24 23 22 21 21 20 19 18 18 17 16 15 14 13 13 13 14 14 13 11 11 11 12 13 13 13 14 15 16 17
5 5 4 1 2 3 3 3 1 1 0 2 2 3 6 10 12 8 3 4 5 6 6 5 5 6 5 5 6 7 7 8 13 23 28 29 30 30 30 31 31 31 32 32 33 33 33 34 34 35 34 34 33 32 32 31 31 32 32 31 31 30 30 28 27 27 26 25 24 22 22 21 21 21 20 19 17 17 17 16 15 15 15 16 16 15 13 12 12 12 13 13 13 14 14 16 17
8 7 5 4 3 2 3 4 3 2 2 3 5 4 6 8 11 11 5 3 4 6 4 4 5 5 5 6 6 7 8 10 17 22 23 23 26 28 30 31 31 31 32 31 32 33 33 34 34 34 35 35 35 34 33 32 31 32 32 32 33 33 32 31 30 29 28 27 25 23 22 22 22 22 21 20 19 18 18 18 17 17 18 18 18 18 15 14 13 12 13 13 13 14 15 16 16
9 7 5 5 5 3 4 3 3 2 2 3 5 5 7 8 10 13 7 1 4 6 5 6 6 5 6 7 8 9 9 11 14 17 19 21 25 27 28 29 30 30 30 31 32 34 35 35 34 35 36 36 36 36 36 34 33 33 33 33 34 34 33 32 32 32 31 29 27 25 24 24 24 23 22 21 20 19 19 20 20 19 19 19 20 19 16 15 15 14 14 15 14 14 15 14 13
7 7 5 3 4 4 5 3 3 1 2 3 2 2 7 8 9 12 8 4 6 8 7 8 8 7 6 6 9 10 9 9 10 13 17 20 23 25 27 29 30 31 32 34 36 37 37 35 36 38 38 38 38 38 37 36 37 36 34 34 34 33 32 32 33 33 32 31 29 27 26 26 26 25 23 22 21 21 21 22 22 20 19 20 20 18 17 17 17 16 16 17 16 14 14 13 13
5 5 6 4 3 2 4 3 3 2 1 2 2 2 7 9 9 10 10 7 8 9 9 9 9 8 7 8 10 9 8 8 9 12 15 19 23 25 27 29 31 33 34 36 37 37 36 36 38 39 39 39 39 40 39 39 39 38 36 35 33 32 32 33 34 33 33 32 32 30 28 28 28 27 25 23 23 22 22 23 21 19 19 20 20 19 19 18 16 16 16 17 16 14 14 14 14
3 5 6 3 3 2 2 2 4 2 1 2 3 3 6 7 7 9 10 7 8 9 9 9 8 8 10 9 7 7 8 10 10 11 11 16 21 23 26 30 32 33 34 35 36 36 37 39 41 41 41 39 39 40 41 41 40 38 37 36 34 32 31 32 32 32 33 33 33 32 31 30 29 29 26 24 24 24 24 23 21 20 19 19 19 21 22 20 18 17 15 16 16 15 15 14 14
1 4 6 4 4 4 2 0 3 3 3 3 4 5 5 4 5 8 7 3 5 7 6 8 8 9 10 8 7 8 10 10 11 12 10 11 17 23 27 30 30 32 34 36 37 38 40 42 43 43 41 40 40 41 42 41 39 37 35 33 31 30 29 29 29 30 32 32 33 33 32 31 28 28 27 25 25 25 24 24 22 20 19 19 20 21 21 19 17 17 16 16 18 18 16 12 10
2 4 6 7 7 5 3 3 4 4 3 3 4 3 5 4 4 7 5 4 5 5 4 9 10 8 8 7 10 11 10 10 10 12 11 9 16 21 24 27 28 32 36 37 37 39 41 42 42 41 41 41 41 41 41 40 39 38 36 34 32 30 29 29 31 32 32 32 32 31 30 28 26 27 27 27 28 25 24 25 22 19 19 19 20 19 19 18 17 17 17 18 20 19 15 10 8
2 5 7 7 7 7 5 4 4 2 2 2 3 1 5 5 6 9 6 6 9 7 6 9 9 8 7 8 10 10 10 10 10 11 10 9 14 16 20 26 30 34 36 36 36 37 38 38 38 39 40 41 41 41 40 39 40 39 38 38 36 34 32 32 32 32 31 31 30 29 28 27 26 26 26 27 27 24 25 26 21 19 21 18 18 18 18 17 16 15 17 18 17 14 11 9 8
3 5 8 8 7 7 6 6 3 2 1 3 2 2 3 6 7 8 5 6 11 10 9 9 8 9 9 9 10 10 11 10 7 9 9 10 14 17 21 26 29 33 33 32 34 36 37 37 37 37 39 40 40 39 39 40 40 40 39 38 37 36 36 34 32 31 31 30 29 28 27 27 26 26 26 26 25 24 26 26 20 20 23 20 18 19 18 18 16 13 14 14 13 11 9 8 7
5 6 8 7 7 6 5 6 3 1 2 3 3 2 2 6 6 4 2 6 11 10 9 10 9 10 10 10 11 10 10 8 6 8 9 10 15 19 24 26 27 30 30 30 33 34 35 35 35 36 37 39 39 38 39 40 41 40 39 38 38 37 36 34 31 30 30 29 28 28 27 26 26 25 25 25 25 24 25 24 20 21 24 23 19 18 18 19 17 13 11 11 11 9 7 6 7
3 4 6 4 4 5 4 4 3 1 1 3 4 2 2 6 5 2 1 5 9 7 7 9 9 9 9 9 9 7 6 6 6 7 10 13 16 19 21 23 25 28 28 29 31 31 32 33 33 35 37 38 38 38 39 40 40 40 39 39 38 37 35 33 31 29 28 28 27 27 26 25 25 24 24 25 25 24 24 25 22 21 23 21 16 16 18 18 15 12 12 12 10 9 9 8 8
5 7 7 6 5 4 3 2 3 1 3 5 6 6 4 4 4 4 4 4 6 7 6 8 8 8 8 8 7 6 5 6 5 6 9 13 17 18 18 20 24 25 25 26 28 29 31 32 33 35 37 38 38 38 39 39 40 40 41 40 39 37 34 33 32 30 29 28 28 27 26 25 24 23 24 24 25 24 24 24 22 22 23 20 16 18 19 16 13 12 11 13 13 12 11 10 9
6 5 5 5 3 3 3 3 2 1 5 4 3 4 5 6 6 3 4 5 4 6 6 7 8 8 8 6 5 5 5 5 6 6 7 9 11 13 14 19 22 22 23 25 26 28 29 31 32 33 35 36 37 37 38 39 39 40 41 40 39 38 35 34 34 33 32 30 30 28 26 25 24 24 23 23 23 23 24 23 23 23 22 21 19 17 15 12 11 11 12 14 14 12 11 10 9
4 5 6 5 2 1 1 1 1 4 5 2 2 3 3 7 7 5 8 10 9 8 8 8 9 9 8 5 4 6 5 6 6 7 7 6 7 8 10 15 18 19 22 23 24 25 27 29 30 32 34 35 35 35 36 37 38 39 40 39 38 37 35 35 35 34 34 33 32 30 29 27 26 26 25 24 22 22 23 24 24 23 22 21 18 15 13 12 11 13 16 16 14 11 10 9 9
5 6 6 5 4 4 4 3 1 3 5 2 2 2 3 5 4 7 11 12 10 7 7 8 7 8 9 7 6 8 8 8 7 7 7 6 6 8 11 12 13 15 19 20 21 22 24 25 27 30 32 31 31 32 33 35 37 37 37 37 37 36 36 36 35 35 35 34 33 32 31 30 28 27 26 24 23 22 23 23 23 23 23 22 18 16 16 15 14 16 16 15 13 12 11 10 12
5 4 5 4 4 5 5 4 2 4 3 1 1 2 3 2 3 6 9 9 9 7 7 8 7 8 7 6 7 9 10 9 7 6 7 6 7 10 12 10 10 11 13 16 18 20 21 23 25 27 29 28 28 30 31 33 34 35 35 36 36 36 36 36 35 35 35 34 33 32 31 30 29 27 26 24 23 22 23 23 22 22 22 20 19 19 17 15 17 18 16 14 14 14 14 14 14
2 2 4 3 4 5 3 3 5 4 1 1 2 4 4 3 6 8 7 8 8 8 8 7 9 8 4 5 8 8 8 8 6 6 6 6 8 11 10 8 7 7 8 11 14 17 19 21 22 24 26 27 27 28 30 32 33 33 34 35 35 35 35 34 34 34 34 33 33 32 31 30 28 27 25 24 23 23 23 23 24 24 22 21 20 19 15 16 19 19 18 17 16 16 16 16 16
2 2 4 4 3 6 5 1 0 3 1 2 2 4 5 3 6 8 6 7 8 9 9 7 8 8 6 7 8 7 7 6 6 6 6 6 7 8 8 7 6 6 6 7 9 12 15 17 19 21 23 24 25 27 28 30 31 32 33 33 33 33 34 34 34 34 33 32 31 31 31 30 28 27 26 24 24 24 24 25 26 25 23 22 19 16 17 19 21 21 20 20 19 18 18 18 19
6 4 6 3 2 3 4 1 2 3 2 4 2 5 5 2 4 5 4 5 7 9 9 7 6 6 6 8 8 8 7 6 6 6 6 6 7 8 7 6 6 7 7 7 7 8 10 12 15 17 20 22 24 25 26 28 30 31 32 32 32 32 33 33 33 33 32 31 30 30 30 29 28 28 27 26 25 26 27 27 27 26 23 20 17 17 19 22 22 22 21 20 20 21 21 21 19
4 5 5 4 2 2 2 3 1 1 2 4 4 4 4 5 6 5 4 7 9 10 10 8 7 7 6 7 8 8 7 5 5 5 5 5 6 8 7 6 6 7 7 7 7 8 9 10 12 14 16 17 19 22 24 26 27 29 30 30 31 31 31 31 31 31 30 30 30 30 30 29 29 29 29 27 27 29 29 28 27 25 21 19 18 20 22 22 22 22 21 20 21 23 24 23 21
3 4 4 2 2 4 3 3 3 3 3 3 3 4 3 6 6 7 10 12 11 11 10 9 9 8 6 6 7 7 6 6 5 5 5 4 6 8 7 7 7 6 7 7 7 8 8 9 10 12 13 14 16 18 21 23 25 26 27 27 28 29 29 30 30 30 30 30 30 30 30 30 30 30 30 29 30 32 31 29 27 24 21 20 21 23 23 23 22 22 22 23 24 25 26 26 24
4 5 6 4 2 2 2 1 2 4 4 3 2 4 5 6 4 9 12 11 11 11 11 10 8 5 5 6 6 6 6 6 5 4 4 5 7 8 7 7 7 7 7 7 8 8 8 9 10 11 12 13 14 16 17 19 21 23 25 26 26 27 27 28 29 29 30 29 29 30 31 31 31 31 32 32 32 33 31 29 28 25 23 23 24 24 22 22 23 25 26 27 27 27 27 26 24
8 7 8 9 6 4 3 3 1 2 2 4 3 4 8 5 5 8 9 9 11 10 8 7 6 5 5 6 6 5 5 6 5 4 4 4 7 8 6 6 7 7 8 8 8 9 9 9 10 11 12 13 14 15 15 15 16 19 22 24 25 25 26 27 28 29 29 30 30 31 32 32 32 33 33 33 33 33 31 29 28 26 25 25 25 24 23 24 27 30 28 27 28 28 27 25 24
Wind_Direction
357 342 338 347 1 339 343 49 82 329 70 93 306 182 208 226 175 172 173 176 166 207 218 136 138 145 119 132 183 171 109 156 167 128 181 257 146 155 152 157 160 159 156 149 149 147 142 139 138 132 127 126 121 114 104 92 90 104 103 101 101 98 100 102 107 106 102 98 94 94 95 93 90 89 88 89 90 90 90 91 93 91 86 83 81 81 82 84 88 87 85 84 83 83 83 83 83
357 336 334 328 359 10 257 68 88 320 47 83 249 181 257 320 185 189 183 195 200 186 154 124 114 103 75 93 125 146 88 24 193 149 110 128 141 154 155 159 161 160 156 150 150 148 148 150 146 137 134 139 132 120 102 90 88 100 104 103 104 101 103 102 106 107 101 97 96 96 94 94 93 91 90 90 90 90 90 91 96 94 88 87 85 84 86 88 90 89 87 86 84 84 85 86 86
1 326 328 317 349 36 79 40 77 312 64 78 265 237 252 146 208 204 193 212 183 146 118 121 114 90 43 72 87 127 86 7 199 150 119 140 146 160 163 160 162 161 155 152 153 153 155 152 148 140 136 144 145 125 105 99 98 101 102 105 110 106 104 98 100 101 95 94 96 96 93 93 92 91 91 91 91 91 92 93 97 97 90 87 86 86 88 91 94 92 88 86 86 86 85 86 85
23 350 317 303 22 40 60 38 118 117 90 201 299 254 214 183 205 210 214 206 155 135 119 135 111 95 15 17 103 103 61 309 188 148 137 152 156 163 160 161 164 161 155 154 157 157 154 146 144 145 140 141 140 127 115 111 106 105 105 110 118 110 105 99 98 95 91 94 96 97 95 94 94 94 94 93 92 91 94 96 100 100 92 87 88 88 88 89 91 91 86 84 86 87 86 84 82
54 33 19 134 74 41 90 66 110 84 148 187 56 262 220 200 195 192 204 185 165 119 94 117 105 280 28 126 160 155 139 135 184 167 145 155 161 159 158 165 165 160 157 156 159 157 152 147 142 144 141 139 139 132 122 117 109 112 114 116 117 105 100 100 99 99 99 97 97 101 100 101 101 100 100 97 95 95 96 97 99 100 94 89 88 89 89 86 87 88 86 85 85 86 86 84 81
99 46 49 79 86 112 124 62 104 35 237 173 139 262 227 197 190 164 136 173 220 257 114 139 163 163 77 326 282 179 162 133 179 174 151 156 160 158 161 166 165 159 158 158 161 158 155 149 139 140 143 142 144 139 130 125 118 117 119 117 114 101 94 103 103 103 106 102 101 102 99 101 100 102 106 104 102 101 99 101 103 102 97 93 92 91 91 89 88 88 88 87 86 85 85 83 82
121 20 39 69 69 37 102 160 205 239 245 165 174 247 231 203 184 145 135 167 254 289 186 199 143 122 122 308 227 198 201 179 170 173 161 157 158 160 164 165 163 161 159 161 162 160 156 148 139 143 148 144 145 146 139 131 121 119 124 122 117 108 102 108 108 103 105 105 103 99 97 98 94 96 100 98 97 97 97 100 102 103 100 96 94 92 90 90 88 89 89 88 85 84 85 83 83
42 42 346 80 47 27 85 141 234 228 254 249 232 236 235 198 172 148 155 176 200 243 232 190 117 113 239 356 156 249 196 188 176 172 164 156 158 161 164 162 163 162 161 162 162 160 157 151 144 144 145 144 148 149 144 136 128 123 128 131 124 114 113 118 120 119 109 106 106 102 103 102 98 96 96 96 96 96 96 98 98 100 102 97 93 91 90 89 89 89 89 89 86 85 86 85 84
36 43 118 81 72 38 47 324 276 251 264 270 249 249 257 181 158 144 157 206 257 195 241 183 137 105 239 59 263 295 169 194 176 169 164 157 159 161 163 165 166 163 162 161 162 163 160 155 147 146 147 148 152 149 146 141 135 131 130 137 131 115 118 127 129 134 112 107 114 109 108 107 106 102 100 100 100 99 98 99 99 100 103 99 92 91 92 90 90 91 91 91 87 86 87 86 84
35 27 129 85 90 35 339 304 271 272 253 256 255 242 215 167 142 130 150 195 214 151 198 172 100 73 137 130 261 320 183 178 164 167 166 161 160 161 165 168 170 166 162 161 163 165 163 158 151 153 157 153 152 151 151 148 144 141 136 139 139 125 120 130 129 127 111 109 117 115 114 112 108 105 104 104 102 103 100 100 100 102 105 103 96 92 96 95 91 92 93 91 87 87 86 83 80
32 5 88 85 82 107 268 251 272 279 268 294 283 242 195 165 127 119 128 152 182 125 168 160 116 138 101 305 249 343 186 164 165 170 167 164 162 162 165 169 172 169 163 160 165 168 164 162 158 160 164 159 156 155 156 159 157 148 144 142 144 138 126 128 126 124 118 115 121 121 120 113 109 110 108 106 104 104 103 102 101 103 107 106 102 96 99 101 96 93 94 93 90 88 86 81 76
93 341 62 97 134 181 203 223 272 286 299 320 260 247 184 155 132 152 157 155 161 129 192 195 169 135 90 307 260 330 166 170 176 176 169 167 164 163 168 171 172 171 165 161 166 169 166 165 163 165 167 163 160 161 161 164 167 156 153 151 149 148 140 139 135 136 134 124 128 127 122 119 116 114 110 108 106 105 105 103 101 102 106 109 107 101 98 102 101 96 97 98 93 90 86 81 75
126 144 92 123 165 156 152 186 274 312 321 292 189 238 153 152 172 174 148 133 147 154 229 203 162 108 115 256 280 319 188 183 183 179 173 169 167 165 169 172 171 171 167 165 169 169 169 168 166 169 170 167 164 167 164 164 171 165 161 163 161 158 153 151 150 151 147 135 140 138 128 126 123 116 114 117 116 111 107 102 102 102 104 109 108 103 102 106 108 104 103 100 94 90 86 79 72
128 154 117 130 89 127 153 183 298 353 305 282 326 211 171 170 193 165 136 147 192 183 237 178 156 116 148 231 288 286 201 188 182 181 178 170 168 165 169 173 172 172 170 169 171 172 172 171 171 173 175 173 171 170 167 166 173 175 173 174 168 166 163 161 162 162 156 149 155 155 135 120 117 111 113 118 117 113 111 109 107 104 106 111 110 109 110 110 114 114 108 99 91 85 81 76 67
123 124 89 111 79 143 172 175 129 120 247 258 42 166 218 278 136 145 157 166 218 210 127 148 164 189 174 171 228 248 198 185 180 182 178 174 170 165 171 174 173 175 175 174 174 176 175 175 177 180 182 181 178 174 170 170 179 185 183 174 165 169 169 167 168 164 160 163 169 171 151 122 114 107 110 113 112 111 115 119 118 116 114 113 112 112 113 112 119 125 121 108 87 73 66 63 57
111 108 67 103 127 209 184 168 135 112 252 226 233 157 187 275 120 149 225 158 160 204 125 175 177 254 170 160 213 267 190 181 179 180 178 176 172 167 172 174 175 177 178 179 178 180 179 179 181 184 187 186 184 179 174 176 184 190 183 168 166 172 173 171 171 168 164 168 174 176 166 142 126 116 116 111 107 108 111 114 115 116 111 107 105 106 108 109 118 133 144 140 119 73 40 35 33
75 85 68 89 157 211 191 172 176 162 258 269 288 172 148 270 296 205 272 78 105 149 291 227 205 313 195 197 302 279 176 177 178 177 178 177 172 169 172 175 176 178 182 184 183 183 183 182 182 185 188 189 189 187 184 184 190 193 184 170 169 176 177 174 174 174 170 169 174 175 170 155 139 130 125 114 107 106 105 103 100 100 98 100 101 103 104 109 122 140 160 165 173 202 325 344 355
60 90 104 218 181 203 188 177 193 164 319 281 241 174 158 207 232 190 53 39 53 119 278 285 293 263 243 269 319 156 166 172 176 176 178 179 176 173 174 179 181 182 184 186 187 186 186 186 184 184 187 190 191 192 193 193 196 196 188 177 169 172 176 175 176 178 178 175 175 175 172 164 152 144 137 126 115 109 107 104 98 96 93 90 93 99 104 115 130 140 156 176 204 233 276 294 316
87 118 140 219 194 210 205 176 186 152 37 248 300 196 181 198 176 153 191 258 43 179 255 323 310 259 249 271 154 155 162 167 175 178 181 182 182 180 178 181 185 188 187 188 189 188 190 190 186 184 186 190 193 195 197 197 199 198 192 183 174 169 171 175 176 178 181 180 180 179 177 173 166 161 155 144 131 123 117 113 108 105 101 95 94 96 98 107 117 123 136 144 88 343 326 308 311
136 130 161 229 207 225 239 188 199 216 309 309 321 81 189 222 172 156 188 199 187 208 223 187 234 229 204 172 153 157 161 166 176 184 187 188 189 187 184 185 188 190 190 191 190 190 193 193 190 186 185 189 194 198 199 199 199 199 195 188 181 175 173 176 178 178 180 182 183 183 183 182 181 179 174 166 152 141 135 129 122 115 115 109 106 109 106 108 109 109 108 82 55 38 29 19 1
128 139 177 212 183 141 209 205 223 240 178 88 322 134 239 238 178 170 157 159 234 230 220 200 214 205 181 172 163 164 166 168 179 189 194 195 195 194 193 191 191 193 191 192 192 193 194 194 194 189 188 190 194 199 201 201 200 200 198 193 189 184 180 181 182 182 182 184 185 187 189 190 190 190 187 183 174 164 158 151 143 133 134 122 123 152 142 127 122 114 99 76 53 37 27 19 14
115 144 152 179 160 97 151 210 216 181 106 113 132 222 254 159 172 170 162 196 236 227 217 211 214 185 171 170 166 168 171 174 181 191 199 200 199 198 199 196 194 195 194 195 195 197 196 195 196 193 192 192 194 199 201 202 202 202 201 198 195 191 189 188 188 189 189 189 190 192 194 195 196 196 198 196 192 187 182 179 180 176 183 214 239 207 185 161 141 135 116 80 56 38 28 14 4
132 207 35 198 179 121 179 196 201 147 110 163 206 239 105 106 253 182 181 217 219 223 235 224 218 173 163 160 161 169 176 181 187 194 199 201 201 201 201 198 195 195 199 202 200 201 201 198 198 198 196 196 198 199 201 203 202 204 202 200 200 198 196 194 193 194 195 196 197 200 201 202 203 203 205 206 204 201 200 198 197 198 206 231 228 204 195 183 164 154 136 81 60 48 38 21 8
87 181 192 177 182 200 208 169 193 174 179 217 232 246 147 179 235 97 215 228 205 274 280 225 191 158 154 157 167 178 182 187 193 198 201 202 203 203 204 201 198 197 201 207 205 203 205 203 202 201 200 201 201 201 203 204 204 206 204 204 204 203 202 200 199 197 199 202 204 207 208 210 210 211 212 212 213 209 207 203 198 198 192 196 190 184 187 179 172 150 125 67 29 20 18 8 5
26 209 195 161 191 241 259 267 216 210 235 250 103 239 233 204 177 122 242 236 222 246 53 109 135 141 155 167 178 183 186 192 196 200 203 207 206 205 208 206 203 202 203 208 208 205 207 207 205 205 205 205 206 206 205 206 207 209 208 207 207 206 206 206 205 204 204 206 208 211 213 215 216 217 218 218 220 215 210 210 206 201 196 193 178 178 191 192 194 188 14 357 355 349 350 349 347
221 196 206 205 231 261 306 359 169 203 254 197 163 261 281 245 179 262 253 240 221 133 82 106 127 146 175 177 184 186 187 193 196 199 202 206 206 207 210 210 209 209 208 209 210 210 209 208 208 208 209 209 210 210 210 211 210 212 212 211 211 211 211 211 210 210 211 212 213 215 217 219 221 222 223 223 223 218 216 224 228 224 220 217 207 201 210 214 224 255 316 334 340 339 339 337 335
197 169 204 237 268 286 76 22 330 235 254 200 198 262 293 309 334 258 274 299 196 115 97 151 150 170 188 187 194 191 193 196 195 196 198 201 204 208 211 211 212 213 213 212 212 214 213 210 209 210 212 213 213 214 216 216 215 216 217 216 216 217 217 217 216 216 217 218 219 221 223 225 226 227 226 226 226 225 228 237 241 241 238 234 228 228 233 232 238 292 325 330 330 331 335 335 332
142 141 162 270 299 288 237 296 316 21 287 200 184 255 298 1 264 231 271 335 159 140 144 194 185 197 194 194 199 196 204 203 196 192 194 200 204 207 209 210 212 214 215 215 214 215 216 216 212 211 214 215 216 217 219 221 221 221 221 221 221 221 223 223 222 222 223 224 225 226 228 230 231 232 230 230 230 231 236 240 245 243 232 228 230 235 244 244 267 299 308 309 309 313 319 323 320
105 123 151 287 330 291 241 219 125 55 277 188 158 300 284 231 227 234 269 339 115 135 176 210 213 220 207 207 203 206 212 202 196 200 204 205 206 207 210 212 212 213 216 217 218 217 218 219 216 213 214 216 219 219 221 223 225 226 226 226 225 225 226 226 227 227 228 230 231 232 233 234 234 236 235 234 235 238 238 238 242 243 236 236 241 250 251 256 272 282 292 293 293 301 308 312 309
112 107 148 276 352 298 246 181 135 139 217 152 143 276 269 245 242 247 247 131 119 141 207 212 219 225 215 214 209 217 213 200 203 209 211 210 209 210 213 214 214 215 218 218 220 220 219 220 219 218 216 217 220 222 224 225 226 228 229 230 229 230 229 229 230 229 231 233 234 236 236 237 237 238 239 238 238 239 239 239 242 247 258 262 264 271 267 264 264 268 284 286 283 292 301 311 310
130 104 48 189 220 275 285 228 152 189 216 117 137 251 271 268 264 264 225 163 154 193 225 218 218 222 217 212 211 223 217 212 216 217 216 214 214 215 216 217 216 217 218 218 220 221 221 221 221 222 221 220 221 225 226 227 228 229 231 233 232 233 233 233 232 231 233 234 236 238 237 238 238 238 240 241 241 241 241 243 247 253 262 267 272 279 276 272 264 262 273 279 281 286 291 301 305
86 151 254 216 195 261 308 301 169 197 213 120 152 235 272 265 270 296 277 172 189 222 235 230 225 223 219 214 213 221 226 225 229 228 224 220 218 218 218 218 217 218 219 220 221 222 222 223 224 224 224 223 223 227 229 229 230 232 233 235 235 235 236 235 234 233 234 235 236 237 238 238 237 239 239 240 242 242 242 243 248 252 256 262 264 270 272 274 274 269 268 272 275 277 280 288 293
337 192 219 222 177 240 304 326 264 253 219 157 182 219 281 271 261 300 320 164 175 238 254 250 243 239 230 227 224 225 231 233 235 233 229 224 222 221 220 220 220 221 222 223 224 224 224 225 227 227 227 225 224 227 230 229 230 232 234 236 236 236 237 238 236 236 237 237 236 236 237 237 238 238 237 238 240 240 242 244 248 249 252 256 254 261 270 269 275 275 272 272 270 268 271 279 289
246 196 189 190 156 173 228 278 326 359 292 208 191 204 247 275 273 275 288 157 158 220 252 258 254 248 239 238 241 236 232 232 234 232 228 226 224 223 222 222 223 223 225 225 226 226 227 228 230 231 231 229 227 228 231 231 231 233 235 237 237 237 237 239 239 239 239 238 237 237 237 238 239 239 238 238 239 241 243 243 248 249 251 254 248 257 272 267 268 273 273 274 273 274 274 276 287
182 175 166 166 158 154 187 232 263 80 126 220 211 232 243 267 278 267 233 159 176 214 237 253 251 245 241 236 238 237 233 235 236 232 230 228 226 225 223 223 224 225 226 227 227 228 229 230 232 233 232 232 230 229 231 232 231 232 234 236 238 238 238 239 239 239 240 240 240 239 239 240 240 240 240 239 240 243 244 245 248 248 252 253 247 255 268 265 264 271 276 277 275 274 272 275 283
153 166 155 149 164 192 219 233 248 204 154 224 228 234 240 255 273 274 262 165 209 242 250 255 252 248 244 236 236 238 233 238 242 239 236 233 230 228 225 224 225 225 226 227 227 228 228 229 230 231 232 232 230 229 229 229 228 229 231 233 236 238 239 239 239 239 241 242 243 242 242 242 242 243 242 241 241 242 245 248 249 249 252 252 247 250 257 261 268 273 276 280 279 272 268 273 281
134 140 131 148 173 223 247 238 261 225 165 248 234 219 240 248 260 269 268 191 246 265 262 255 253 247 241 236 240 238 234 243 251 249 242 236 234 231 228 227 225 225 226 226 227 228 229 228 228 229 232 231 228 226 226 225 225 226 227 230 233 236 239 239 240 241 242 243 245 245 245 245 244 244 243 241 241 243 247 249 248 248 250 251 250 251 256 263 271 273 273 275 276 275 274 277 283
122 138 136 148 179 220 243 231 279 314 147 256 293 270 257 251 256 268 270 256 259 256 249 253 250 246 243 238 243 242 243 254 259 253 242 233 232 230 228 226 224 224 224 225 227 228 228 228 228 230 231 230 229 228 226 224 226 227 227 229 232 234 236 238 239 241 242 244 246 246 245 246 245 244 243 243 242 243 247 249 248 247 249 251 250 251 260 265 263 264 266 269 269 271 277 282 284
112 130 133 156 183 235 266 262 317 8 140 263 342 323 272 262 260 268 267 253 252 248 240 243 244 247 245 236 240 244 251 262 259 252 241 230 228 226 224 224 223 225 226 226 227 227 227 227 228 230 230 228 229 229 227 227 229 230 230 232 233 234 236 239 240 241 244 245 246 246 244 243 243 243 242 242 243 243 247 249 248 248 250 251 248 249 258 260 256 255 256 261 264 267 276 281 282
112 132 141 182 191 179 221 259 316 356 46 309 326 305 276 270 268 266 261 245 246 253 247 247 244 241 244 243 243 240 240 247 251 254 243 227 225 222 220 221 222 223 225 226 225 225 225 227 228 229 228 227 227 228 229 230 231 233 234 236 238 238 240 242 241 242 243 244 244 245 243 242 242 242 240 241 243 243 245 244 242 245 246 245 248 252 255 255 253 250 251 259 263 262 269 277 280
176 168 158 175 184 172 168 252 325 2 21 15 2 318 280 264 262 257 267 284 261 263 269 264 253 239 247 265 265 241 234 236 242 250 245 221 219 220 220 221 221 220 223 224 224 224 226 228 229 228 228 227 227 229 230 229 229 230 231 232 234 235 237 236 235 237 239 240 241 241 243 243 243 243 241 240 242 241 244 242 238 242 244 244 247 250 255 258 254 248 247 254 258 259 262 267 272
209 227 180 170 167 145 94 45 35 42 352 354 39 329 279 298 287 258 274 313 279 273 273 262 258 248 243 255 257 245 240 238 235 246 248 224 220 223 223 222 220 220 225 227 227 227 228 229 229 227 227 227 228 229 229 227 225 224 224 222 222 223 225 227 229 232 234 236 238 239 242 243 243 243 240 241 239 237 243 242 237 238 242 246 249 249 252 254 252 251 250 253 259 259 251 246 256
201 231 176 150 138 126 110 79 71 105 240 287 71 166 264 303 286 261 270 286 279 277 268 260 263 263 242 233 246 246 244 241 236 247 252 238 230 226 225 224 221 223 229 230 228 229 229 228 228 227 227 227 228 228 226 225 223 222 222 221 221 220 222 226 230 232 234 236 237 238 239 240 240 239 237 239 237 236 240 239 235 239 239 240 248 249 246 247 249 254 259 260 257 248 236 236 240
218 219 159 139 133 142 142 106 106 196 243 328 21 127 253 284 258 250 257 266 274 276 273 267 257 257 250 238 240 240 242 241 237 249 250 241 235 229 230 230 228 230 233 231 230 230 230 229 229 228 228 228 227 226 225 224 222 221 221 221 222 223 225 228 230 233 235 236 236 235 236 237 236 235 235 236 235 236 240 236 231 240 240 235 241 246 246 246 245 251 261 252 232 222 229 233 214
238 205 154 151 143 142 135 107 133 205 43 318 309 97 253 270 257 268 274 243 260 269 271 269 257 252 253 246 241 239 246 245 235 246 250 245 238 235 237 239 239 239 237 234 234 234 231 231 229 227 228 228 227 225 224 224 223 222 221 221 222 225 227 229 231 233 235 234 232 232 233 234 234 235 234 234 235 234 237 237 232 238 241 232 232 248 251 243 238 243 252 233 212 213 217 207 197
226 146 100 82 87 85 87 105 129 81 28 240 225 155 244 270 253 244 258 231 245 255 260 261 256 252 252 256 257 255 264 261 243 245 253 254 250 247 247 247 247 245 242 239 237 235 232 231 229 227 227 228 227 226 224 224 224 222 222 222 223 225 226 227 229 231 231 229 228 228 228 229 231 233 233 233 235 233 234 237 232 235 242 231 228 249 247 235 234 243 246 233 222 218 209 210 220
123 104 73 57 48 43 55 66 83 67 284 237 201 179 189 279 264 207 221 228 222 229 247 260 261 262 255 255 262 265 268 265 260 261 263 265 264 260 254 249 248 246 243 240 237 235 232 230 228 227 228 227 226 225 224 224 224 222 223 223 224 225 224 224 224 225 226 224 223 225 226 228 230 232 233 232 232 230 228 231 228 231 238 237 241 248 235 227 237 247 244 230 219 213 211 215 218
104 99 101 88 40 23 36 6 46 179 254 251 201 160 165 236 256 233 258 284 252 222 229 248 255 262 260 256 266 269 262 261 268 268 267 274 277 271 257 248 247 243 239 237 235 233 230 228 227 227 228 227 225 225 224 224 224 223 225 225 225 226 224 223 223 223 223 221 222 224 224 226 229 231 232 230 228 223 220 223 225 226 230 234 237 232 220 226 241 233 221 208 199 197 199 200 202
100 108 124 111 88 93 148 265 212 222 255 251 156 126 200 241 257 262 263 266 255 227 219 238 254 268 278 288 289 274 262 255 258 261 264 268 274 275 264 254 251 243 237 235 233 230 228 227 225 226 229 228 225 224 224 224 224 224 225 225 226 227 225 225 225 224 223 223 222 223 223 224 226 228 228 228 226 220 218 220 221 224 228 227 224 220 226 242 238 209 196 194 193 195 200 205 208
159 146 153 143 131 149 198 225 249 251 260 259 166 177 265 283 277 241 241 250 257 245 233 243 253 262 273 285 284 278 273 261 253 257 262 264 266 271 271 268 263 252 243 237 232 229 227 226 225 226 230 230 227 226 225 225 226 226 227 227 227 227 226 226 226 226 226 225 225 225 226 226 227 229 230 230 226 219 217 219 221 224 221 217 220 228 232 232 221 201 193 196 203 214 224 224 218
175 151 141 154 154 157 187 194 191 226 249 295 266 210 211 234 260 229 224 247 271 271 256 258 259 249 249 266 270 270 270 266 260 259 261 264 266 267 269 271 269 261 249 239 233 230 228 227 226 227 230 230 229 228 227 226 227 228 227 228 228 227 227 227 227 228 228 229 228 227 228 228 229 232 234 233 227 218 213 215 218 217 211 212 221 221 216 214 211 205 205 211 217 225 228 220 210
197 128 124 189 191 145 143 177 171 174 220 259 218 232 217 211 274 270 244 246 259 260 259 269 277 279 287 277 265 259 263 268 268 264 263 264 264 262 260 260 258 254 245 236 232 230 229 230 230 230 232 232 231 230 230 229 230 229 229 229 229 228 228 228 228 229 230 231 231 230 230 231 232 235 235 231 223 215 212 212 211 208 209 214 214 215 223 222 212 210 215 221 224 222 216 205 195
153 143 183 208 163 119 113 195 117 98 216 256 211 249 282 312 286 279 274 273 269 265 265 255 256 275 289 274 269 270 268 269 267 262 261 262 264 259 250 243 240 235 231 230 229 228 231 233 233 233 234 234 232 232 232 232 232 231 231 230 230 229 228 228 229 229 230 231 231 231 232 233 233 233 232 228 218 211 210 210 206 204 205 206 208 223 233 221 212 214 219 221 218 209 200 194 191
136 182 198 160 96 89 104 154 3 46 237 273 245 241 273 294 269 297 342 319 288 272 271 266 249 251 258 261 268 276 271 267 270 270 268 265 262 256 245 232 226 221 221 222 221 224 228 232 234 236 237 236 235 234 233 233 233 232 232 231 230 230 229 230 230 231 231 230 229 229 229 230 231 231 228 222 213 207 206 205 203 201 200 202 215 227 220 210 209 212 213 214 209 200 194 189 187
137 181 180 136 151 212 130 154 168 122 218 272 290 278 258 209 227 274 295 289 286 277 275 280 268 249 249 262 270 278 285 284 280 275 272 265 253 249 240 224 218 213 214 215 213 219 223 228 233 235 238 239 238 237 235 234 233 233 233 233 232 231 231 231 230 230 230 228 228 227 226 227 228 228 223 215 208 204 201 200 200 198 199 207 217 217 210 206 208 209 208 203 196 190 185 177 172
68 135 156 131 146 174 167 164 163 158 187 248 304 321 264 221 209 208 230 251 262 266 272 272 263 248 240 255 266 276 283 278 277 277 275 272 255 243 227 216 214 207 212 215 215 220 223 228 232 234 237 237 236 237 235 235 234 233 233 233 232 231 230 230 229 229 228 227 228 227 225 225 225 224 219 211 205 201 199 199 197 198 203 209 211 209 207 205 203 200 191 179 172 172 170 165 163
141 150 173 185 152 128 160 176 139 134 155 189 278 294 259 241 203 189 210 230 233 238 249 257 266 260 240 248 255 265 277 276 275 276 275 279 271 253 230 219 216 208 213 218 222 227 227 230 235 237 238 238 237 237 236 235 235 233 232 232 231 231 229 229 228 228 227 227 227 226 225 223 221 220 214 206 202 200 198 198 197 198 204 207 207 204 197 191 183 175 172 168 165 166 166 163 163
175 176 190 188 169 132 154 212 220 99 151 173 178 266 263 240 191 189 201 216 224 225 230 255 288 290 260 259 254 253 273 278 275 275 269 275 282 275 257 236 227 218 219 224 231 236 237 239 240 239 239 239 239 239 239 237 235 233 232 232 231 230 229 227 226 226 226 225 224 223 222 220 218 216 209 203 201 198 196 197 198 201 204 204 203 194 183 177 171 168 170 170 168 168 168 166 166